Vorticity
6 7 5 4 7 3 21 7 40 1 -6 12 -0 -4 7 12 -5 13 22 -10 69 5 7 3 3 3 4 5 4 4 4 4 5 7 6 5 5 5 5 4 3 3 4 5 5 5 5 6 5
6 7 8 2 10 -0 13 6 -6 7 17 2 2 16 4 3 19 12 7 -6 4 5 3 4 3 4 3 3 4 5 6 6 7 6 6 7 8 7 6 7 6 5 4 3 5 5 5 6 6
8 8 8 7 8 -9 2 -5 2 2 14 3 10 1 10 7 -7 15 5 3 5 7 6 5 3 2 2 1 2 4 5 4 3 4 4 5 5 4 7 6 6 3 1 1 3 3 6 5 5
7 7 6 -0 -5 8 15 3 16 14 1 5 5 6 12 1 5 5 10 2 7 10 7 3 2 4 4 3 4 4 4 4 4 2 2 3 5 8 7 6 5 4 5 5 3 3 4 5 5
8 10 -2 5 -2 1 -4 -1 4 7 -7 -2 8 6 6 2 3 11 4 3 1 5 4 3 3 2 2 3 2 3 3 2 1 1 1 3 5 7 11 8 6 6 5 4 4 3 2 4 5
5 4 7 3 -18 34 12 1 28 10 12 1 -1 2 6 2 6 1 0 3 2 3 2 1 1 2 3 4 3 1 2 2 3 1 4 6 7 8 10 10 8 7 6 6 4 4 3 3 3
11 3 3 4 -6 34 8 -0 5 2 -0 2 5 12 9 6 1 2 4 6 3 2 2 2 2 3 2 2 2 3 4 4 4 7 10 10 10 9 8 8 9 8 7 5 5 6 4 3 3
7 1 8 7 -2 11 25 8 4 15 12 9 -1 1 4 -0 -2 6 8 3 2 1 2 4 4 3 3 4 5 6 8 9 10 8 8 8 8 9 8 8 9 9 6 7 5 5 4 4 4
4 1 6 5 8 40 14 7 -0 5 20 3 -1 3 9 5 10 5 9 5 3 3 3 3 3 3 5 6 6 7 8 8 9 9 8 8 9 8 8 9 9 10 9 7 7 6 3 0 6
3 9 13 21 19 11 4 9 3 -5 2 3 -1 1 -1 3 8 5 -2 -3 2 5 4 3 5 6 6 7 9 10 9 7 7 6 5 5 5 6 6 7 8 10 10 11 6 8 6 2 11
-0 6 3 -9 15 7 6 8 7 6 1 2 1 0 2 7 13 5 4 1 4 5 7 7 7 7 9 10 7 6 6 5 5 5 5 5 5 4 4 3 4 5 5 8 10 10 4 1 10
1 3 6 2 4 20 -1 8 7 6 5 8 5 9 5 6 3 3 4 3 6 6 7 9 10 10 7 7 6 5 4 4 4 4 4 4 4 5 4 4 3 1 1 3 3 4 9 10 9
13 13 4 -3 7 -5 -7 -4 4 3 0 9 4 7 9 6 6 2 4 7 9 11 11 9 8 8 6 5 4 3 4 5 5 5 5 5 5 5 5 3 3 2 2 2 1 1 1 2 5
0 12 4 14 12 5 12 12 7 0 1 2 4 1 -1 -1 4 7 13 13 9 6 7 6 5 3 4 5 6 7 7 6 6 6 6 6 7 8 8 8 8 7 6 5 4 4 3 2 0
6 1 5 1 0 -1 11 8 10 5 10 4 5 5 11 12 12 13 8 5 5 5 5 5 7 7 7 6 6 7 7 8 7 6 7 7 7 7 7 7 7 8 9 10 9 7 7 7 4
5 9 9 0 2 4 5 2 5 11 9 6 6 13 9 -1 4 9 9 7 6 9 8 7 8 6 6 7 7 5 6 8 8 7 7 8 9 9 10 10 8 5 7 9 10 9 9 9 8
5 -3 10 15 25 13 7 5 3 -2 6 11 7 9 -0 -4 8 11 8 7 8 6 7 5 6 8 4 7 9 7 8 6 7 8 8 7 7 7 7 7 8 10 10 6 8 11 13 11 11
-3 18 11 9 -7 4 24 2 -20 18 7 8 7 -1 -1 5 8 5 8 6 6 6 7 6 5 9 6 7 8 7 6 8 6 6 6 8 11 13 14 15 16 15 14 14 11 9 10 13 14
-0 -23 -7 -10 15 30 30 8 8 2 6 4 1 4 2 7 8 5 6 12 7 9 3 8 5 7 7 6 7 5 5 6 9 10 12 13 12 10 10 11 13 15 14 11 12 13 10 10 14
9 -1 -2 11 -1 27 1 -5 2 5 -3 4 6 10 6 6 10 2 7 2 1 6 5 6 7 5 5 6 8 7 8 10 11 15 14 11 11 11 13 13 15 6 14 19 19 18 17 15 14
-1 14 10 -0 -4 -4 8 13 5 -1 10 10 5 5 6 5 8 8 8 4 6 2 6 3 5 6 6 8 9 8 9 11 11 8 7 11 11 10 9 8 12 18 25 22 22 27 24 20 19
10 4 16 11 0 12 27 5 30 -2 -3 16 17 9 8 7 4 5 7 1 2 4 -0 6 5 6 9 11 10 10 9 14 11 15 13 14 12 9 14 13 24 34 28 24 23 24 25 26 22
15 3 -5 -2 -7 3 14 0 26 8 -12 -6 2 29 7 6 9 7 -2 -2 3 4 6 7 10 11 11 12 11 8 16 8 15 11 12 4 -2 4 28 33 32 29 18 11 14 15 14 18 23
18 6 15 12 11 40 -7 -10 21 13 3 2 14 25 12 6 5 4 -9 -7 1 6 10 7 8 10 13 10 7 13 8 15 13 10 1 8 13 -11 37 30 23 18 12 13 13 16 14 14 15
24 21 8 18 16 -2 30 32 -20 6 21 14 31 37 10 8 -5 16 -13 -9 3 10 1 3 7 11 10 10 10 11 13 18 10 -0 9 8 5 4 36 24 14 12 18 20 18 17 18 17 18
9 13 -46 6 7 10 36 15 6 17 22 37 16 30 18 4 7 14 -9 -8 12 2 -0 4 3 14 11 9 12 10 18 14 -4 9 5 5 20 2 31 22 26 21 20 16 17 16 17 18 19
44 15 17 1 2 11 0 13 25 18 16 20 45 20 7 8 1 -3 -6 3 12 5 0 0 3 16 10 7 12 12 21 -5 6 8 7 12 18 -8 14 29 23 8 2 17 16 14 18 16 15
10 -13 0 11 9 7 30 5 -19 2 6 22 21 6 2 2 -5 -2 3 18 7 6 -0 -1 4 16 8 8 15 16 3 -2 9 8 6 8 7 17 -20 -4 8 25 24 20 17 16 19 17 12
29 23 16 31 -41 5 7 28 36 14 15 13 5 2 1 -5 11 -3 13 5 -1 7 5 2 8 12 10 11 14 14 3 1 8 8 8 10 10 7 17 11 6 -3 23 14 21 25 14 17 20
39 5 9 -32 44 18 -23 10 -13 16 13 8 12 4 7 5 -6 -2 11 -1 8 8 9 5 9 10 12 12 13 13 1 6 8 8 9 8 10 6 7 8 11 11 7 -0 10 7 12 23 25
Height
3165 3165 3164 3164 3170 3165 3164 3162 3161 3161 3161 3163 3164 3163 3161 3160 3161 3168 3167 3161 3170 3173 3179 3179 3183 3181 3179 3178 3178 3177 3176 3176 3174 3174 3173 3172 3172 3171 3170 3169 3169 3168 3167 3166 3165 3163 3163 3163 3162
3163 3164 3164 3164 3166 3164 3164 3161 3160 3159 3160 3164 3164 3162 3160 3160 3163 3166 3167 3172 3173 3177 3179 3179 3182 3179 3176 3176 3176 3175 3175 3174 3172 3172 3171 3170 3169 3169 3168 3168 3167 3166 3165 3165 3164 3164 3162 3162 3161
3161 3162 3163 3162 3163 3165 3164 3162 3159 3158 3158 3161 3164 3163 3162 3160 3164 3166 3167 3172 3176 3177 3178 3178 3178 3176 3175 3175 3174 3175 3174 3173 3172 3171 3170 3169 3168 3167 3165 3165 3165 3164 3164 3163 3163 3163 3162 3160 3159
3159 3160 3161 3160 3163 3163 3164 3161 3161 3155 3158 3159 3160 3163 3163 3162 3163 3166 3167 3169 3173 3175 3175 3175 3175 3174 3173 3173 3173 3173 3172 3171 3169 3168 3167 3166 3166 3165 3163 3162 3161 3161 3161 3161 3160 3160 3160 3160 3158
3159 3158 3158 3158 3161 3162 3163 3161 3160 3157 3156 3157 3159 3160 3162 3162 3162 3164 3166 3168 3168 3170 3172 3172 3172 3171 3171 3170 3170 3170 3169 3168 3166 3164 3163 3162 3161 3161 3160 3159 3158 3157 3157 3156 3156 3157 3157 3157 3156
3157 3157 3155 3156 3158 3158 3160 3158 3156 3155 3156 3157 3158 3158 3158 3161 3163 3164 3165 3166 3167 3168 3169 3169 3169 3169 3168 3168 3167 3166 3165 3164 3162 3160 3159 3157 3156 3155 3155 3154 3153 3153 3152 3152 3152 3152 3151 3151 3151
3155 3156 3153 3154 3155 3156 3158 3156 3154 3152 3153 3155 3155 3156 3157 3158 3162 3163 3164 3166 3166 3166 3167 3168 3168 3166 3165 3165 3164 3162 3161 3159 3158 3157 3155 3153 3153 3151 3150 3149 3149 3148 3147 3147 3147 3147 3147 3147 3147
3153 3153 3154 3153 3153 3153 3156 3154 3151 3152 3152 3154 3156 3156 3157 3159 3160 3162 3163 3165 3165 3165 3165 3165 3164 3163 3162 3161 3160 3158 3157 3156 3155 3153 3151 3150 3148 3147 3145 3144 3144 3143 3142 3141 3141 3141 3141 3142 3143
3150 3151 3150 3151 3150 3149 3149 3150 3150 3149 3150 3151 3153 3154 3157 3157 3160 3161 3163 3164 3164 3163 3162 3161 3161 3159 3158 3156 3155 3154 3152 3151 3151 3149 3147 3146 3144 3143 3141 3140 3139 3138 3137 3136 3135 3134 3134 3135 3135
3148 3149 3150 3151 3150 3147 3148 3150 3149 3150 3149 3150 3150 3152 3154 3157 3158 3160 3161 3161 3161 3160 3159 3158 3157 3156 3154 3152 3151 3150 3148 3147 3147 3145 3142 3141 3140 3138 3137 3135 3133 3132 3131 3130 3130 3129 3128 3128 3128
3145 3145 3148 3150 3150 3147 3146 3146 3147 3148 3148 3149 3149 3150 3152 3155 3156 3158 3159 3159 3158 3157 3155 3154 3153 3151 3150 3148 3147 3146 3144 3142 3141 3140 3138 3137 3136 3134 3133 3131 3129 3127 3126 3124 3123 3122 3121 3121 3121
3142 3143 3144 3146 3148 3147 3144 3144 3145 3147 3147 3148 3147 3147 3149 3151 3153 3154 3155 3154 3153 3152 3151 3149 3148 3148 3146 3145 3144 3142 3140 3138 3137 3134 3132 3132 3131 3129 3126 3125 3124 3122 3120 3119 3117 3115 3114 3114 3113
3138 3140 3139 3141 3144 3145 3143 3141 3143 3143 3144 3145 3145 3142 3144 3146 3148 3150 3151 3150 3148 3147 3146 3145 3144 3143 3142 3140 3139 3137 3135 3133 3130 3128 3125 3125 3123 3121 3120 3119 3116 3113 3111 3110 3110 3108 3106 3105 3104
3134 3135 3137 3137 3139 3140 3139 3139 3139 3139 3140 3142 3143 3143 3143 3143 3144 3145 3146 3146 3145 3143 3143 3141 3140 3139 3138 3136 3134 3131 3129 3126 3123 3120 3117 3115 3114 3112 3110 3108 3105 3102 3101 3100 3097 3097 3095 3095 3094
3131 3131 3132 3134 3135 3136 3135 3135 3136 3136 3136 3138 3139 3140 3141 3141 3141 3142 3143 3142 3141 3140 3139 3138 3137 3136 3133 3131 3128 3125 3122 3119 3115 3113 3108 3105 3101 3100 3098 3096 3094 3091 3088 3086 3084 3082 3081 3081 3082
3128 3128 3127 3129 3130 3132 3133 3130 3132 3132 3132 3133 3134 3137 3138 3139 3139 3140 3139 3138 3137 3136 3135 3133 3132 3130 3128 3126 3122 3119 3116 3112 3109 3105 3101 3096 3092 3087 3085 3083 3081 3078 3075 3072 3070 3068 3067 3066 3066
3122 3122 3121 3122 3125 3127 3127 3125 3127 3128 3128 3129 3131 3133 3134 3135 3134 3135 3134 3133 3132 3131 3130 3129 3127 3125 3123 3120 3116 3112 3109 3105 3100 3096 3091 3087 3081 3076 3072 3067 3064 3061 3060 3058 3055 3053 3051 3051 3052
3117 3118 3119 3118 3120 3119 3118 3120 3121 3122 3124 3125 3126 3127 3129 3130 3130 3129 3129 3128 3128 3128 3127 3126 3124 3121 3117 3114 3111 3107 3103 3098 3094 3089 3083 3077 3072 3067 3061 3056 3051 3046 3042 3040 3038 3036 3036 3034 3035
3116 3117 3116 3116 3115 3112 3112 3116 3118 3118 3118 3119 3119 3118 3122 3125 3126 3125 3125 3124 3123 3122 3121 3120 3118 3115 3112 3109 3106 3102 3097 3093 3087 3080 3074 3068 3062 3056 3050 3044 3037 3031 3026 3022 3019 3018 3017 3018 3018
3111 3112 3112 3112 3114 3113 3113 3112 3114 3112 3113 3113 3113 3112 3117 3120 3121 3119 3119 3120 3120 3118 3116 3115 3113 3109 3105 3102 3098 3093 3088 3083 3077 3072 3066 3060 3053 3046 3039 3032 3025 3018 3012 3006 3002 2999 2999 3001 3003
3105 3106 3109 3111 3111 3110 3110 3107 3106 3108 3108 3106 3105 3107 3112 3115 3115 3114 3115 3116 3115 3113 3110 3109 3107 3104 3100 3095 3090 3085 3080 3075 3070 3064 3058 3050 3042 3033 3025 3018 3011 3003 2996 2990 2986 2984 2983 2984 2988
3099 3103 3104 3106 3107 3106 3107 3099 3100 3103 3102 3099 3097 3096 3101 3108 3109 3110 3112 3112 3111 3109 3106 3103 3101 3098 3094 3089 3084 3079 3074 3068 3062 3056 3050 3043 3036 3026 3014 3005 2996 2989 2982 2980 2976 2973 2971 2970 2971
3095 3099 3099 3100 3101 3101 3101 3100 3092 3097 3096 3094 3090 3091 3094 3100 3105 3107 3108 3107 3107 3104 3101 3098 3095 3091 3087 3082 3077 3072 3067 3061 3055 3049 3044 3037 3029 3018 3004 2993 2985 2979 2976 2973 2970 2967 2964 2962 2960
3093 3094 3094 3094 3095 3093 3092 3096 3071 3086 3089 3089 3086 3086 3088 3091 3097 3102 3102 3103 3101 3098 3095 3091 3088 3084 3080 3076 3071 3067 3062 3056 3051 3046 3041 3033 3025 3014 3000 2988 2981 2976 2972 2968 2965 2961 2958 2956 2953
3085 3086 3090 3092 3091 3084 3087 3088 3076 3081 3082 3081 3080 3081 3085 3087 3093 3096 3097 3097 3095 3092 3088 3085 3082 3078 3075 3070 3066 3061 3056 3051 3046 3042 3036 3030 3022 3013 2998 2987 2980 2975 2970 2965 2961 2957 2953 2950 2948
3077 3079 3079 3084 3085 3081 3081 3076 3072 3070 3073 3073 3075 3078 3081 3086 3090 3091 3093 3092 3089 3085 3082 3080 3078 3074 3070 3065 3061 3057 3052 3049 3045 3040 3033 3028 3020 3012 2999 2986 2981 2976 2970 2964 2959 2955 2952 2948 2945
3069 3068 3074 3074 3077 3078 3074 3070 3069 3067 3068 3069 3070 3074 3081 3085 3088 3090 3088 3086 3085 3083 3079 3076 3072 3069 3066 3062 3057 3053 3050 3047 3042 3037 3032 3025 3020 3013 3001 2992 2984 2977 2970 2964 2959 2955 2951 2947 2944
3059 3065 3068 3072 3077 3073 3063 3063 3062 3064 3065 3068 3071 3075 3079 3083 3084 3084 3084 3083 3082 3078 3074 3071 3067 3064 3061 3057 3054 3052 3048 3045 3040 3036 3031 3025 3019 3012 3004 2997 2987 2979 2971 2966 2961 2956 2952 2948 2944
3057 3056 3060 3064 3065 3061 3063 3059 3058 3060 3063 3067 3072 3075 3077 3078 3078 3079 3076 3075 3074 3072 3070 3066 3063 3060 3057 3054 3051 3048 3046 3041 3038 3034 3030 3026 3019 3012 3005 2999 2991 2984 2976 2969 2963 2958 2954 2949 2945
3050 3050 3050 3052 3057 3058 3056 3056 3056 3060 3063 3066 3069 3071 3072 3072 3071 3070 3070 3069 3069 3067 3065 3062 3058 3055 3052 3050 3046 3043 3041 3039 3036 3032 3028 3024 3019 3013 3006 3000 2995 2988 2982 2976 2969 2963 2958 2952 2947